ボアッティーニ彗星

C/2009 P2 ( Boattini )

English version
Home page
Updated on December 15, 2011

---------------------------------------------------------------------

・ プロフィール

発見日 2009年8月15日
発見光度 19.2等
発見者 A. Boattini (Catalina)

・ 写真集

・ 軌道要素

Epoch 2010 Feb. 13.0 TT = JDT 2455240.5
T 2010 Feb. 10.86556 TT                                 MPC
q   6.5438952            (2000.0)            P               Q
z  -0.0002837      Peri.   76.08829     +0.92776931     -0.27918941
 +/-0.0000013      Node    60.39220     -0.33994446     -0.90599099
e   1.0018567      Incl.  163.45516     +0.15388913     -0.31817227
From 450 observations 2008 Oct. 1-2011 Aug. 27, mean residual 0".6.

・ 光度変化

        m1 = 6.5 + 5 logΔ + 10.0 log r

---------------------------------------------------------------------

軌道要素はM.P.E.C. 2011-R11に掲載されたものです。
光度グラフはComet for Windowsで作成したものです。

---------------------------------------------------------------------

Copyright(C) Seiichi Yoshida (comet@aerith.net). All rights reserved.